Location: Pedholt
(56.0260°N, 10.2097°E)
Time: 03:08:25
(UTC+00:00)

Transit 2A Rocket - Pass Details

Date: 01 August 2021
Orbit: 586 x 916 km, 66.7° (Epoch: 21 September)

Event Time Altitude Azimuth Distance (km) Brightness Sun altitude
Rises 13:51:37 0° 209° (SSW) 2,876 8.7 43.0°
Reaches altitude 10° 13:53:49 10° 205° (SSW) 2,007 8.1 42.7°
Maximum altitude 13:58:15 59° 127° (SE) 770 5.5 42.3°
Drops below altitude 10° 14:03:08 10° 48° (NE) 2,203 7.0 41.7°
Sets 14:05:38 0° 45° (NE) 3,185 7.8 41.4°
